Theta_e
294 294 294 294 294 293 292 290 290 290 291 289 289 290 289 289 289 289 290 290 290 289 289 290 290 290 290 290 290 290 291 292 292 293 293 294 295 296
294 294 294 294 293 292 291 289 289 288 288 290 290 290 290 290 290 290 290 290 290 290 289 289 289 290 290 290 290 290 290 291 292 293 293 293 294 295
294 294 294 293 293 292 290 289 288 288 287 287 287 288 289 289 289 289 289 289 289 289 289 289 289 289 289 288 289 289 290 290 291 292 292 292 292 293
293 293 293 293 292 291 290 288 288 287 286 287 286 286 287 287 287 287 286 286 286 287 287 287 288 288 288 288 288 288 288 288 287 288 289 290 290 291
293 293 293 292 292 291 290 288 287 286 286 286 285 286 285 285 285 285 285 285 285 285 285 285 285 285 285 286 287 287 287 287 287 287 287 288 289 289
292 292 292 292 291 291 288 287 286 286 286 285 285 285 284 284 284 284 285 285 285 285 285 284 283 283 284 285 284 285 286 286 286 286 286 285 286 287
291 291 291 291 290 289 288 287 286 286 286 285 284 284 284 284 284 283 283 284 284 284 284 282 283 282 283 283 283 284 284 283 282 282 283 284 285 286
291 291 290 290 290 289 287 286 286 286 286 285 286 285 285 284 283 282 282 283 281 283 282 282 282 282 283 282 282 282 282 281 282 283 283 283 284 285
291 290 290 290 289 287 286 286 286 286 286 287 286 285 285 283 283 282 281 279 280 281 280 279 281 282 282 281 282 282 282 282 281 282 282 283 284 284
291 290 289 289 289 287 286 286 286 286 286 285 285 284 283 282 281 280 280 278 279 280 279 278 280 281 281 281 282 283 282 281 280 281 283 283 284 284
290 288 288 288 287 286 285 284 285 285 285 284 284 283 281 280 280 279 279 278 278 279 278 277 279 279 279 280 280 282 281 279 279 279 281 283 284 283
288 288 287 286 286 285 285 285 285 285 284 283 283 281 280 280 279 279 278 278 277 277 276 275 278 277 275 277 278 281 278 276 275 276 277 279 280 282
287 287 286 285 284 284 284 284 284 283 283 284 282 281 280 279 278 278 277 276 275 275 276 274 276 277 274 274 279 280 274 274 274 274 275 276 278 281
287 287 286 285 284 283 282 282 282 282 283 282 281 280 280 279 277 277 276 275 274 274 276 276 275 274 273 272 273 278 274 273 273 273 273 275 277 279
285 286 285 283 282 280 279 278 278 281 281 281 280 279 279 277 276 276 275 275 274 276 276 275 275 275 272 271 271 273 273 274 272 272 273 273 273 276
283 282 282 281 279 279 278 278 280 280 280 279 278 277 277 276 275 274 274 274 275 276 276 275 274 273 272 271 272 272 272 271 272 271 271 271 272 273
282 281 279 278 278 278 278 278 278 278 278 277 277 276 276 275 274 273 274 274 274 275 275 274 274 271 271 270 271 272 272 272 271 271 271 271 271 272
283 281 279 280 279 280 279 278 277 277 276 275 275 275 275 274 273 273 272 273 274 274 272 272 271 270 271 271 271 272 271 271 271 271 271 271 271 272
283 280 279 279 280 280 279 277 277 276 275 275 275 274 274 273 272 272 272 272 273 273 271 270 269 268 268 269 272 271 271 271 271 270 271 271 271 271
279 281 280 281 282 279 278 277 276 276 275 275 274 273 273 272 272 271 271 271 271 272 271 269 269 269 268 269 268 271 270 271 271 271 271 271 271 272
277 280 282 282 280 277 277 275 275 275 274 273 273 273 272 271 271 271 270 270 270 269 269 269 269 268 268 268 268 270 270 271 271 271 271 271 271 271
277 280 281 280 278 277 275 275 274 274 273 273 272 272 271 271 270 270 269 269 269 268 268 268 268 268 268 267 268 269 269 270 270 270 270 270 271 271
278 280 279 279 277 274 274 274 274 273 272 272 271 271 270 270 270 269 269 269 268 268 268 268 268 267 267 267 267 268 269 269 269 269 269 270 270 271
Wind_Speed
31 27 24 21 20 20 18 17 15 12 12 10 10 15 19 20 23 26 30 30 32 32 31 32 33 34 35 36 35 35 34 33 32 31 31 32 32 31
35 31 28 24 22 21 20 19 17 16 13 13 14 17 18 19 23 26 28 29 30 33 34 33 33 34 35 35 37 38 36 36 37 36 36 36 35 33
38 36 31 27 24 22 22 21 20 19 18 18 18 17 17 21 25 28 30 29 31 32 32 33 33 35 37 38 38 37 38 40 39 40 39 37 36 36
42 39 35 31 28 25 24 23 22 21 20 19 19 19 20 23 25 29 33 35 36 35 33 33 33 34 35 36 37 37 37 39 39 38 39 38 38 37
44 42 38 34 30 27 26 25 23 22 21 19 21 21 24 26 28 30 33 36 39 40 39 35 39 41 42 38 39 40 39 37 38 39 39 38 38 36
48 45 41 36 32 29 28 25 23 20 22 20 20 21 24 26 30 34 38 38 40 41 37 40 46 48 49 45 46 45 44 44 39 35 38 39 38 38
51 48 43 37 34 31 30 27 23 22 21 20 19 20 24 28 31 35 37 40 41 38 40 48 49 51 51 49 49 47 46 43 37 37 38 38 38 40
54 51 46 41 39 35 32 28 25 23 21 20 19 21 24 26 28 31 34 38 42 38 48 52 49 53 51 48 47 49 46 40 40 40 41 43 43 44
55 52 48 45 41 36 32 29 27 23 24 22 20 20 22 22 26 29 31 34 37 40 45 54 50 53 50 52 53 53 51 48 45 44 42 44 45 47
54 53 50 46 43 38 33 30 27 24 22 19 20 18 18 19 22 24 28 35 38 37 37 51 47 51 54 57 55 52 52 48 40 40 42 43 46 47
55 53 49 46 40 37 35 30 27 24 21 19 20 16 14 15 17 22 25 32 41 41 37 34 47 56 59 56 49 55 55 38 40 44 40 41 46 49
54 53 50 45 41 39 36 32 29 24 21 19 17 14 14 15 16 19 23 28 32 39 20 34 47 48 43 49 51 58 52 53 44 43 43 43 48 46
57 52 47 44 41 39 36 33 27 23 21 19 15 14 15 16 17 19 21 25 29 33 36 32 44 45 41 53 59 59 55 51 47 45 44 43 42 42
53 50 47 44 42 39 35 31 27 26 21 17 15 14 16 17 18 20 22 24 27 30 32 30 39 40 44 50 57 63 54 53 49 49 47 44 41 40
50 47 42 42 40 34 29 25 26 22 18 17 16 15 17 18 19 21 23 25 29 29 29 31 34 38 39 48 54 60 55 61 51 40 39 44 43 48
45 42 39 38 33 33 32 30 24 21 19 18 17 15 17 18 19 20 25 28 33 33 32 33 34 35 42 44 50 62 57 53 58 51 51 52 51 50
38 36 35 36 37 36 33 27 24 22 19 17 16 15 16 18 19 20 24 29 33 38 40 38 37 39 41 45 52 54 60 62 55 53 48 54 54 52
39 43 45 45 42 37 33 29 26 21 18 16 15 16 17 18 20 21 24 29 34 37 41 40 41 46 47 48 34 47 51 54 57 52 48 52 60 49
41 46 49 46 38 34 29 29 24 21 18 16 16 15 17 18 20 23 26 29 34 38 40 40 43 37 41 47 54 32 47 55 59 59 51 51 60 58
44 47 43 40 37 32 32 29 26 22 19 18 15 15 16 19 21 23 26 31 34 39 43 42 41 39 36 49 60 65 41 50 53 57 55 54 57 57
50 40 38 37 32 32 30 28 24 21 18 16 15 15 15 19 20 24 28 30 33 36 44 47 46 45 47 47 51 58 58 46 46 52 56 55 55 55
45 40 41 35 33 32 30 26 22 19 17 15 14 14 15 17 20 25 29 32 33 37 45 49 50 48 46 42 52 58 65 62 55 49 45 49 55 57
40 36 36 36 33 31 27 22 19 16 15 14 13 14 14 15 19 25 29 31 35 42 46 52 53 50 46 45 48 56 60 62 60 58 54 44 44 49
Wind_Direction
236 240 248 257 265 266 265 265 264 265 282 289 304 321 328 330 332 333 333 333 332 330 327 325 323 322 320 318 316 312 308 302 298 297 294 293 292 291
235 240 246 254 259 263 264 263 264 258 254 268 284 303 309 317 322 324 324 325 324 323 324 324 322 318 315 316 317 315 310 303 296 293 291 290 288 288
234 238 242 248 255 260 263 266 265 262 264 272 284 297 308 317 321 321 321 321 320 320 320 320 320 319 320 321 320 319 313 307 301 294 290 286 285 283
233 236 240 245 248 252 257 261 261 262 270 280 289 300 310 316 321 323 325 328 330 330 330 328 323 318 318 325 323 319 316 313 306 299 293 288 284 282
232 234 238 241 246 250 252 254 255 259 268 278 289 302 314 321 322 327 329 329 330 332 335 332 330 330 330 332 324 321 318 313 306 296 289 287 282 280
232 231 233 239 244 248 251 251 248 257 269 279 290 304 314 321 328 328 326 328 328 329 333 329 331 330 331 332 328 325 321 316 309 294 286 280 276 273
230 230 231 233 239 243 245 245 245 253 262 273 288 302 311 322 326 328 325 325 324 332 329 327 328 326 329 328 324 325 323 315 299 293 287 282 277 275
229 227 228 231 235 238 241 241 244 252 260 267 280 300 312 318 321 322 323 323 329 333 326 321 324 322 326 324 322 322 317 301 294 290 286 280 275 272
227 227 227 229 231 233 236 238 242 250 255 271 288 298 303 312 313 314 322 320 318 323 322 315 322 322 324 318 319 319 317 312 306 297 287 280 276 274
228 229 229 230 230 231 232 233 237 242 257 269 281 285 291 299 313 316 315 311 310 314 320 312 324 321 319 317 317 316 316 312 299 291 288 283 278 275
224 226 228 228 227 227 227 227 233 239 248 261 268 280 297 300 303 307 312 311 312 317 324 314 323 320 317 317 318 320 314 305 295 292 286 280 279 278
222 224 225 225 225 227 227 228 231 235 239 248 257 271 286 293 299 304 307 307 305 312 312 314 317 322 317 310 310 317 312 310 302 297 293 287 276 268
222 220 220 222 223 226 227 227 230 229 235 245 253 269 281 290 299 299 301 301 302 303 319 316 312 315 303 303 315 319 308 304 300 296 292 289 281 268
225 222 221 221 221 222 226 224 224 230 234 239 246 260 276 287 293 296 298 299 301 306 315 313 306 310 308 301 299 318 304 299 296 293 290 288 281 273
225 225 220 219 220 214 209 206 210 225 231 237 248 262 277 286 294 299 301 305 306 312 318 319 314 315 304 291 290 297 301 303 295 293 293 285 283 268
219 217 213 211 205 210 199 211 218 222 228 236 248 264 276 285 293 301 309 315 313 317 320 322 325 321 303 287 290 296 297 289 297 291 287 284 279 272
213 206 201 198 204 207 211 217 218 218 223 238 254 267 277 288 299 310 315 315 316 318 320 324 327 323 305 294 292 292 299 297 294 292 290 286 280 274
213 208 205 209 208 206 211 213 215 218 229 243 256 269 279 291 304 313 316 316 317 320 320 325 328 323 319 308 288 296 294 292 295 293 289 284 282 278
213 209 209 204 206 211 208 211 213 221 232 243 255 268 280 294 305 315 320 321 320 321 322 325 324 316 305 299 313 300 296 295 294 292 287 281 279 280
213 213 210 211 212 205 205 209 213 218 227 239 250 264 281 294 306 318 323 324 324 323 325 323 323 318 300 297 301 308 300 296 294 291 290 286 281 282
201 211 215 215 208 202 206 207 213 220 225 235 247 261 275 292 305 320 325 326 325 328 321 321 323 327 318 309 300 300 305 301 295 293 292 287 283 281
205 205 210 209 200 203 205 208 213 217 227 236 247 266 277 292 313 324 328 327 328 329 324 324 328 327 321 309 301 303 306 308 304 301 290 281 277 272
206 209 201 199 198 201 203 207 212 219 228 240 256 268 281 303 319 326 328 328 333 330 329 327 329 328 318 310 305 305 307 308 310 310 303 299 287 274